Regional Weather Roundup
Issued by NWS

Home | Current Version | Previous Version | Graphics & Text | Print | Product List | Glossary Off
Versions: 1 2 3 4 5 6 7 8 9 10 11 12 13 14 15 16 17 18 19 20 21 22 23 24 25 26 27 28 29 30 31 32 33 34 35 36 37 38 39 40 41 42 43 44 45 46 47 48 49 50

000
ASUS43 KFSD 252010
RWRSD

WEATHER ROUNDUP FOR SOUTH DAKOTA
NATIONAL WEATHER SERVICE SIOUX FALLS SD
300 PM CDT WED APR 25 2018

NOTE: "FAIR" INDICATES FEW OR NO CLOUDS BELOW 12,000 FEET WITH NO
SIGNIFICANT WEATHER AND/OR OBSTRUCTIONS TO VISIBILITY.


SDZ001>005-009-010-012>017-252100-
NORTHWEST AND NORTH CENTRAL SOUTH DAKOTA

CITY           SKY/WX    TMP DP  RH WIND       PRES   REMARKS
BUFFALO          N/A     70  27  20 SW20G29   29.89F
FAITH            N/A     64  28  25 S16       29.99F
MOBRIDGE       PTSUNNY   64  30  27 S17       30.00F
$$

SDZ012>016-024>037-041>051-057-063-072>074-252100-
SOUTHWEST AND SOUTH CENTRAL SOUTH DAKOTA

CITY           SKY/WX    TMP DP  RH WIND       PRES   REMARKS
RAPID CTY ARPT MOSUNNY   72  20  14 S15G25    29.98F
PIERRE         MOSUNNY   65  27  23 S15G24    30.05F
CUSTER         MOSUNNY   59   9  13 W17G24    30.08F
ELLSWORTH AFB  MOSUNNY   72  20  14 SE14G26   29.97F
PHILIP         MOSUNNY   68  27  21 SW18      30.03F
PINE RIDGE     SUNNY     65  23  20 SW12G18   30.08F
SPEARFISH      FAIR      68  14  12 W10G17    30.00F
WINNER         FAIR      62  29  28 S9        30.12F
$$

SDZ004>011-016>023-039-040-252100-
NORTHEAST SOUTH DAKOTA

CITY           SKY/WX    TMP DP  RH WIND       PRES   REMARKS
ABERDEEN       MOSUNNY   65  29  25 S16       30.06F
WATERTOWN      CLOUDY    55  29  36 SW13      30.10F
BROOKINGS      SUNNY     55  31  39 W7        30.13F
SISSETON         N/A     61  28  28 S15       30.07F
$$

SDZ017-020-022-023-036>040-048>070-252100-
SOUTHEAST SOUTH DAKOTA

CITY           SKY/WX    TMP DP  RH WIND       PRES   REMARKS
SIOUX FALLS    MOSUNNY   58  24  27 MISG      30.13F
HURON          SUNNY     59  29  31 SW9       30.11F
CHAMBERLAIN    SUNNY     61  32  33 SW8       30.12F
MITCHELL       SUNNY     58  33  39 VRB6      30.14F
YANKTON        SUNNY     56  28  34 E3        30.16F
$$

ABBREVIATIONS USED IN REMARKS
   TC - TEMPERATURE IN CELSIUS
  WCI - WIND CHILL INDEX
   HX - HEAT INDEX
  VSB - VISIBILITY





USA.gov is the U.S. government's official web portal to all federal, state and local government web resources and services.